Regional Weather Roundup
Issued by NWS

Home | Current Version | Previous Version | Text Only | Print | Product List | Glossary Off
Versions: 1 2 3 4 5 6 7 8 9 10 11 12 13 14 15 16 17 18 19 20 21 22 23 24 25 26 27

000
ASUS45 KBOU 172207
RWRCO

WEATHER ROUNDUP FOR COLORADO
NATIONAL WEATHER SERVICE DENVER/BOULDER CO
300 PM MST TUE JAN 17 2017

NOTE: "FAIR" INDICATES FEW OR NO CLOUDS BELOW 12000 FEET WITH NO
SIGNIFICANT WEATHER AND/OR OBSTRUCTIONS TO VISIBILITY.

COZ001>005-013-030-031-172300-
...NORTHWEST COLORADO...

CITY           SKY/WX    TMP DP  RH WIND       PRES   REMARKS
CRAIG          FAIR      18  12  77 CALM      30.20F
HAYDEN         FAIR      18  12  79 W6        30.18R WCI   9
MEEKER         FAIR      31  22  69 S3        30.17S
MOUNT WERNER   NOT AVBL
STEAMBOAT SPGS FAIR      28  16  62 CALM      30.15S
WALDEN           N/A    N/A N/A N/A CALM      30.16R VSB 1/4
$$

COZ006>008-011-172300-
...WEST CENTRAL VALLEYS...

CITY           SKY/WX    TMP DP  RH WIND       PRES   REMARKS
GRAND JUNCTION FAIR      43  27  53 N3        30.16S
MONTROSE       FAIR      42  29  59 VRB3      30.16F
EAGLE          SUNNY     36  23  60 W5        30.17R
RIFLE          FAIR      40  24  53 CALM      30.15S
DELTA          CLOUDY    45  31  57 CALM      30.16S
NUCLA          FAIR      43  30  61 NW6       30.17S
$$

COZ017>023-064>068-172300-
...SOUTHWEST COLORADO...

CITY           SKY/WX    TMP DP  RH WIND       PRES   REMARKS
DURANGO        CLOUDY    40  32  73 S3        30.11S
CORTEZ         CLOUDY    45  35  68 S13       30.12S
PAGOSA SPRINGS CLOUDY    38  29  71 SW6       30.12S
TELLURIDE      FAIR      32  26  76 W9G16     30.14S WCI  25
WOLF CREEK PAS NOT AVBL
$$

COZ009-010-012-014-032>034-037-058>063-172300-
...CENTRAL COLORADO...

CITY           SKY/WX    TMP DP  RH WIND       PRES   REMARKS
ASPEN          FAIR      34  22  61 NW3       30.11R
BUENA VISTA    FAIR      31  23  72 W5        30.07R WCI  26
COPPER MTN     FAIR      30  14  51 NW7       30.15R WCI  23
BERTHOUD PASS  NOT AVBL
COTTONWOOD PAS FAIR      36  27  69 CALM      30.09R
GUNNISON       FAIR      27  23  85 S5        30.15R WCI  22
KREMMLING      PTSUNNY   36  23  60 CALM      30.17S
LEADVILLE      FAIR      35  11  36 MISG      30.08R
MONARCH PASS   CLOUDY    21  19  93 MISG      30.23S
SALIDA         FAIR      43  26  52 SW10      30.12S
SUNLIGHT       PTSUNNY   25  21  86 SW6       30.18S FOG     WCI  18
WILKERSON PASS FAIR      32  10  40 CALM      30.13R
$$

COZ069>075-172300-
...SAN LUIS VALLEY/SANGRE DE CRISTO MOUNTAINS...

CITY           SKY/WX    TMP DP  RH WIND       PRES   REMARKS
ALAMOSA        CLOUDY    33  29  85 W5        30.11S WCI  29
LA VETA PASS   PTSUNNY   28  23  80 NE22G33   30.08S WCI  15
SAGUACHE       PTSUNNY   32  28  86 CALM      30.12S
$$

COZ035-036-038>040-172300-
...NORTHERN COLORADO FRONT RANGE...

CITY           SKY/WX    TMP DP  RH WIND       PRES   REMARKS
DENVER INTL AP FAIR      46  26  45 NE3       29.99R
DMNS CITY PARK   N/A     48  24  38 NE5G15    29.99R
AURORA         MOSUNNY   47  27  45 NE5       30.00R
FRONT RANGE AP MOSUNNY   45  30  57 CALM      30.00R
ERIE MUNI ARPT FAIR      43  26  50 CALM      30.00R
BOULDER MUN AP FAIR      41  25  52 CALM      29.99S
CENTENNIAL     FAIR      47  25  42 NE3       29.99R
BROOMFIELD     MOSUNNY   45  28  53 CALM      29.99S
FORT COLLINS   FAIR      45  27  49 S7        30.00R
LONGMONT       FAIR      46  25  44 CALM      30.01R
$$

COZ041-046-047-076>085-087-088-172300-
...PIKES PEAK/PALMER DIVIDE AND SOUTHERN FOOTHILLS...

CITY           SKY/WX    TMP DP  RH WIND       PRES   REMARKS
COLO. SPRINGS  FAIR      43  28  55 CALM      30.02R
A. F. ACADEMY  FAIR      45  24  44 VRB5      30.00R
SCHRIEVER AFB  NOT AVBL
ELLICOTT       FAIR     N/A N/A N/A CALM      30.00S
FALCON         FAIR      44  29  55 CALM      30.02S
FORT CARSON    SUNNY     41  32  70 S2        30.01F
LIMON          FAIR      43  31  62 SW6       30.00S
MONUMENT HILL  FAIR      43  10  26 CALM      30.02R
TRINIDAD       FAIR      35  25  66 E3        30.02S
$$

COZ042>045-048>051-090-091-172300-
...NORTHEAST COLORADO...

CITY           SKY/WX    TMP DP  RH WIND       PRES   REMARKS
GREELEY ARPT   FAIR      45  27  49 S3        30.01R
AKRON          FAIR      39  29  67 SW9       30.00R
BURLINGTON     FAIR      42  31  64 SW10      30.04R
WRAY           NOT AVBL
STERLING       FAIR      41  32  70 S6        30.00R
HOLYOKE        FAIR      43  30  61 SW8       30.02R
FORT MORGAN    FAIR      42  25  51 SW5       30.01R
$$

COZ086-089-092>099-172300-
...SOUTHEAST COLORADO...

CITY           SKY/WX    TMP DP  RH WIND       PRES   REMARKS
PUEBLO         FAIR      38  33  82 S8        30.02S
LA JUNTA       FAIR      34  28  79 S8        30.03F WCI  27
LAMAR          FAIR      40  31  70 CALM      30.04F
SPRINGFIELD      N/A     45  35  68 S12       30.02F
$$




USA.gov is the U.S. government's official web portal to all federal, state and local government web resources and services.